Informationen zur Loipe auf der Atzenberger Höhe
 
20.01.2019Höhe
ü. NN
ZeitTemperatur (°C)Nieder-
schlag
Luft-
feuchte
Luft-
druck
Wind
StationaktuellMinimumMaximumaktuellMaximum
Aldingen654 m00:36-6,4-6,7 (05:59)-6,4 (14:43)0,0 l/m²93%1016,10,0 km/h (0 Bft) S-SW14,8 km/h (3 Bft) S-SO (13:07)
Allmannsweiler625 m00:35-10,1-10,1 (00:30)-9,8 (00:00)0,0 l/m²94%1015,40,0 km/h (0 Bft) SO0,0 km/h (0 Bft) SO (00:00)
Allmendingen541 m00:35-10,4-10,4 (00:35)-9,9 (01:00)0,0 l/m²90%1015,70,0 km/h (0 Bft) S-SW16,1 km/h (3 Bft) SO (09:05)
Altshausen574 m00:35-9,3-9,3 (00:21)-9,1 (00:00)0,0 l/m²88%1011,30,0 km/h (0 Bft) W-SW1,6 km/h (1 Bft) W-SW (00:28)
Amstetten-Reutti663 m00:35-10,9-10,9 (00:35)-10,3 (14:40)0,0 l/m²91%1015,20,0 km/h (0 Bft) S27,4 km/h (4 Bft) O (09:45)
Amtzell-Grenis677 m00:35-9,1-9,1 (00:35)-8,7 (00:20)0,0 l/m²87%1016,71,6 km/h (1 Bft) W-NW4,8 km/h (1 Bft) N (00:00)
Aulendorf570 m00:35-9,1-9,1 (00:31)-8,8 (00:00)0,0 l/m²86%1014,90,0 km/h (0 Bft) S-SW0,0 km/h (0 Bft) S-SW (00:00)
Bad Krozingen233 m00:35-3,6-3,8 (08:50)-3,5 (15:35)0,0 l/m²94%1015,30,0 km/h (0 Bft) S-SW6,6 km/h (2 Bft) W-NW (13:25)
Bad Saulgau595 m00:35-8,7-8,7 (00:30)-8,5 (15:15)0,0 l/m²90%1014,20,0 km/h (0 Bft) W-NW12,9 km/h (3 Bft) W (07:00)
Bad Saulgau-Lampertsweiler627 m00:35-8,2-8,2 (00:25)-8,0 (00:00)0,0 l/m²89%1017,70,0 km/h (0 Bft) O-SO0,0 km/h (0 Bft) O-SO (00:00)
Bad Schussenried572 m00:35-8,2-8,2 (00:20)-8,1 (00:00)0,0 l/m²90%1013,50,0 km/h (0 Bft) SW0,0 km/h (0 Bft) SW (00:00)
Bergatreute615 m00:35-9,4-9,9 (00:05)-9,4 (00:25)0,0 l/m²94%1015,60,0 km/h (0 Bft) NO3,2 km/h (1 Bft) N (00:15)
Biberach (Riss), Boehringer533 m00:30-8,5-8,5 (00:30)-8,4 (00:20)0,0 l/m²93%1013,64,3 km/h (1 Bft) SW7,9 km/h (2 Bft) SW (00:10)
Biberach (Riss), Realschule553 m00:35-9,7-9,8 (00:00)-9,7 (00:25)0,0 l/m²93%1016,70,0 km/h (0 Bft) O-SO0,0 km/h (0 Bft) N (00:00)
Bodnegg-Rotheidlen677 m00:35-8,5-8,8 (00:00)-8,5 (00:35)0,0 l/m²94%1015,60,0 km/h (0 Bft) W-NW0,0 km/h (0 Bft) W-NW (00:00)
Burgrieden523 m00:35-9,0-9,0 (00:35)-8,6 (00:00)0,0 l/m²87%1015,30,0 km/h (0 Bft) S0,0 km/h (0 Bft) S (00:00)
Burgrieden-Hochstetten510 m00:35-8,9-9,0 (00:00)-8,9 (01:00)0,0 l/m²92%1015,74,8 km/h (1 Bft) SO14,5 km/h (3 Bft) SO (08:15)
Ebersbach579 m00:35-9,3-9,3 (00:00)-9,2 (00:10)0,0 l/m²93%1016,30,0 km/h (0 Bft) O-NO0,0 km/h (0 Bft) O (00:00)
Ebersbach-Boos605 m00:35-9,7-9,7 (00:05)-9,6 (00:00)0,0 l/m²94%1016,10,0 km/h (0 Bft) O-SO0,0 km/h (0 Bft) S (00:00)
Ebersbach-Menzenweiler661 m00:35-7,2-7,3 (00:25)-7,1 (00:00)0,0 l/m²96%1015,94,8 km/h (1 Bft) O-NO6,4 km/h (2 Bft) O-NO (00:00)
Erlenmoos645 m00:35-10,2-10,2 (00:25)-9,9 (00:00)0,0 l/m²84%1015,70,0 km/h (0 Bft) SO0,0 km/h (0 Bft) W (00:00)
Ertingen569 m00:40-8,0-8,1 (00:00)-8,0 (00:10)0,0 l/m²92%1015,20,0 km/h (0 Bft) O-SO0,0 km/h (0 Bft) O-SO (00:00)
Friedrichshafen405 m00:35-5,8-5,8 (00:15)-5,7 (15:25)0,0 l/m²89%1015,64,8 km/h (1 Bft) N-NO11,3 km/h (2 Bft) N-NO (01:00)
Günzburg443 m00:35-7,8-7,8 (00:30)-7,4 (00:00)0,0 l/m²90%1013,00,0 km/h (0 Bft) W-SW3,2 km/h (1 Bft) W-SW (00:00)
Höchsten802 m00:35-5,7-5,9 (00:00)-5,7 (00:30)0,0 l/m²93%1013,40,0 km/h (0 Bft) SO0,0 km/h (0 Bft) N (00:00)
Horgenzell618 m00:350,0-5,1 (00:00)0,0 (00:05)0,0 l/m²0%1013,30,0 km/h (0 Bft) N8,0 km/h (2 Bft) O-NO (00:00)
Hoßkirch632 m00:35-9,1-9,3 (00:05)-9,1 (00:20)0,0 l/m²92%1014,60,0 km/h (0 Bft) SW0,0 km/h (0 Bft) SW (00:00)
Isny, Am Dreifingerbach695 m00:35-10,3-10,3 (00:35)-10,2 (00:25)0,0 l/m²90%1015,60,0 km/h (0 Bft) O4,8 km/h (1 Bft) O (00:15)
Isny, Weidachweg706 m00:35-10,2-10,8 (00:05)-10,2 (00:35)0,0 l/m²89%1017,24,8 km/h (1 Bft) SO4,8 km/h (1 Bft) O-SO (00:30)
Kappel-Grafenhausen163 m00:30-3,6-3,6 (08:20)-3,4 (14:45)0,0 l/m²91%1013,20,0 km/h (0 Bft) N6,4 km/h (2 Bft) N-NO (10:25)
Kirchberg an der Iller584 m00:35-8,4-8,4 (00:30)-8,1 (01:00)0,0 l/m²88%1005,20,0 km/h (0 Bft) NO8,0 km/h (2 Bft) S-SW (01:55)
Kißlegg-Staibshof709 m00:35-7,8-7,8 (00:05)-7,7 (00:00)0,0 l/m²95%1015,50,0 km/h (0 Bft) N-NO0,0 km/h (0 Bft) N-NO (00:00)
Kressbronn398 m00:38-5,7-5,8 (00:38)-5,4 (00:00)0,0 l/m²86%1014,30,0 km/h (0 Bft) NO0,0 km/h (0 Bft) NO (00:00)
Kreuzthal-Steinberg-Alpe930 m00:20-4,0-4,9 (00:00)-3,9 (00:20)0,0 l/m²94%1015,02,2 km/h (1 Bft) NW15,8 km/h (3 Bft) W-NW (00:10)
Kreuzthal-Steinberggipfel1040 m00:30-3,5-3,9 (00:10)-3,3 (00:30)-80%1015,014,4 km/h (3 Bft) SW26,3 km/h (4 Bft) W (00:20)
Kristberg im Montafon (AT)1425 m00:35-8,2-8,3 (00:00)-8,2 (00:10)0,0 l/m²68%1015,18,0 km/h (2 Bft) N9,7 km/h (2 Bft) N (00:00)
Laupheim500 m00:35-8,2-8,3 (00:15)-8,1 (00:35)0,0 l/m²90%1014,90,0 km/h (0 Bft) SW0,0 km/h (0 Bft) SW (00:00)
Lindau-Insel420 m00:35-5,7-5,7 (08:30)-4,9 (14:45)0,0 l/m²85%1014,78,0 km/h (2 Bft) N-NO11,3 km/h (2 Bft) W (13:55)
Lindau-Stadt412 m00:35-6,4-6,4 (07:45)-6,3 (11:50)0,0 l/m²87%1015,03,2 km/h (1 Bft) N-NO9,7 km/h (2 Bft) N (01:10)
Maierhöfen im Allgäu733 m00:40-14,4-14,8 (00:00)-14,4 (00:20)0,0 l/m²89%1016,90,0 km/h (0 Bft) SW1,6 km/h (1 Bft) SW (00:15)
Maselheim-Sulmingen548 m00:35-9,9-10,1 (00:05)-9,9 (14:15)0,0 l/m²92%1017,08,0 km/h (2 Bft) SO12,9 km/h (3 Bft) SO (08:40)
Mietingen-Baltringen528 m00:35-9,5-9,5 (00:25)-9,3 (00:00)0,0 l/m²87%1017,51,6 km/h (1 Bft) W3,2 km/h (1 Bft) W (00:20)
Mindelheim-Apfeltrach620 m00:36-14,4-14,4 (00:36)-14,1 (00:00)0,0 l/m²88%1017,04,8 km/h (1 Bft) S4,8 km/h (1 Bft) S (00:01)
Neresheim552 m00:00-8,8-8,8 (00:00)-8,8 (00:00)0,0 l/m²94%1012,20,0 km/h (0 Bft) S0,0 km/h (0 Bft) S (00:00)
Neukirch570 m00:35-8,3-8,3 (00:05)-8,2 (13:00)0,0 l/m²92%1015,84,8 km/h (1 Bft) NO9,7 km/h (2 Bft) W-NW (11:50)
Ochsenhausen, Birkenstraße613 m00:35-11,6-11,6 (00:20)-11,4 (14:15)0,0 l/m²84%1016,33,2 km/h (1 Bft) O11,3 km/h (2 Bft) O-NO (08:05)
Ochsenhausen, Unt. Wiesen575 m00:35-11,4-11,4 (00:30)-11,2 (00:00)0,0 l/m²89%1017,28,0 km/h (2 Bft) S8,0 km/h (2 Bft) S-SO (00:25)
Ostrach619 m00:35-8,8-8,9 (23:45)-8,8 (14:40)0,0 l/m²92%1014,00,0 km/h (0 Bft) S-SO12,9 km/h (3 Bft) N (07:10)
Ravensburg428 m00:35-6,7-6,9 (00:15)-6,7 (00:35)0,0 l/m²90%1014,89,7 km/h (2 Bft) N-NW9,7 km/h (2 Bft) N (00:35)
Ravensburg-Wernsreute511 m00:35-7,0-7,1 (22:45)-7,0 (15:25)0,0 l/m²91%1017,58,0 km/h (2 Bft) N19,3 km/h (3 Bft) N-NO (01:05)
Reichenbach an der Fils343 m00:35-6,7-6,7 (00:25)-6,5 (00:00)0,0 l/m²87%1017,04,8 km/h (1 Bft) O17,7 km/h (3 Bft) O-NO (00:25)
Reinstetten559 m00:35-11,3-11,3 (00:35)-11,0 (00:00)0,0 l/m²90%1016,30,0 km/h (0 Bft) S-SW0,0 km/h (0 Bft) S-SW (00:00)
Riedlingen530 m00:35-6,7-6,9 (00:00)-6,7 (00:25)0,0 l/m²93%1015,40,0 km/h (0 Bft) O-NO0,0 km/h (0 Bft) O-NO (00:00)
Schemmerhofen520 m00:35-9,4-9,5 (00:35)-9,2 (00:00)0,0 l/m²92%1015,30,0 km/h (0 Bft) SW0,0 km/h (0 Bft) SW (00:00)
Silbertal im Montafon (AT)884 m00:35-7,9-7,9 (00:15)-7,8 (00:00)0,0 l/m²89%1017,50,0 km/h (0 Bft) SO0,0 km/h (0 Bft) SO (00:00)
Tettnang466 m00:35-6,2-6,2 (00:25)-6,0 (00:00)0,0 l/m²88%1013,90,0 km/h (0 Bft) NO3,2 km/h (1 Bft) NO (00:00)
Tuttlingen662 m00:35-5,5-5,9 (00:05)-5,5 (00:30)0,0 l/m²90%1015,31,6 km/h (1 Bft) O-SO3,2 km/h (1 Bft) O-SO (00:00)
Ummendorf547 m00:35-11,0-11,0 (00:35)-10,2 (00:00)0,0 l/m²89%1016,70,0 km/h (0 Bft) O-SO3,2 km/h (1 Bft) O-SO (00:05)
Ummendorf-Fischbach558 m00:35-11,7-11,7 (00:05)-11,4 (00:00)0,0 l/m²89%1017,24,8 km/h (1 Bft) S4,8 km/h (1 Bft) S-SW (00:30)
Waldburg707 m00:35-8,5-8,6 (00:25)-8,3 (00:00)0,0 l/m²93%1015,10,0 km/h (0 Bft) N0,0 km/h (0 Bft) N (00:00)
Waltenhofen im Allgäu720 m00:35-13,3-13,8 (00:00)-13,2 (00:25)0,0 l/m²90%1016,30,0 km/h (0 Bft) S-SW0,0 km/h (0 Bft) S-SW (00:00)
Weingarten500 m00:35-8,8-8,8 (00:35)-8,6 (00:00)0,0 l/m²89%1015,33,2 km/h (1 Bft) O4,8 km/h (1 Bft) O (00:10)
Winterlingen785 m00:15-7,3-7,3 (00:15)-7,1 (00:00)0,0 l/m²95%1013,52,9 km/h (1 Bft) W-SW4,3 km/h (1 Bft) W (00:05)

Werbung
niederschlagsdatenbank | info | login - erfassung

Sollten Sie Interesse haben, an der Niederschlagsdatenbank teilzunehmen, finden Sie > hier < weitere Informationen.

Niederschlagsdaten der Station Wilhelmsdorf - Riedhauser Straße

Stephan Odorico

Niederschlagsstation aufgenommen ins Stationsnetz der Wetterwarte Süd am 10.05.2009
Monat: .
Anmerkung:0,0 = nicht messbarer Niederschlag
 -  = kein Niederschlag

Stationsdaten

Höhe

616 m

Lage

Auf Google Maps ansehen

Beschreibung

Die Station befindet sich am nördlichen Ortsrand von Wilhelmsdorf , am südöstlichen Rand des Pfrungener Rieds ca 300 m südlich der Wasserscheide. Süd- Südwestlich erheben sich die nördlichen Ausläufer des Höchsten. Im Nordosten liegt die Rinkenburg (718 m). Im Südosten fließt die Rottach in breitem, ebenen Tal Richtung Hasenweiler.
< September 2012November 2012 >

Oktober 2012

TagNiederschlagBemerkung
01.-
02.2,0
03.-
04.-
05.-
06.5,5
07.3,5
08.15,0
09.10,0
10.3,8
11.-
12.-
13.-
14.7,0
15.-
16.-
17.-
18.-
19.-
20.-
21.-
22.-
23.-
24.-
25.-
26.-
27.-
28.-
Die Wetterstation wird leider geschlossen, hoffentlich regnets trotzdem ab und zu, servus
29.-
30.-
31.-
Gesamt:46,8 
Die Spalten "Tag" und "Niederschlag" lassen sich durch Klicken auf den Spaltenkopf sortieren.
Die Angaben sind in l/m².

< September 2012November 2012 >


Monats- und Jahresniederschlag


Wetterbeobachtungen Legende:

  • Regen
  • Nieselregen
  • Schneeregen
  • Schnee
  • Graupel
  • Eiskörner
  • Hagel
  • Bodennebel
  • Gewitter
  • Nebelnässe
  • Schneegriesel

Grafische Darstellung der Niederschläge der Station Wilhelmsdorf Oktober 2012

 
wetterstationen
wetterstationen
- derzeit 73 Stationen
niederschlagsdatenbank
wetterstationen
- kartographische Darstellung
niederschlagsdatenbank
niederschlagsstationen
- derzeit 103 Stationen
niederschlagsdatenbank
niederschlagsstationen
- kartographische Darstellung
 
 
Sa. 7.30 Uhr - So. 7.30 Uhr (MEZ)
1.Füramoos0,0 l/m²
2.Ulm0,0 l/m²
 
  treffpunkt & service
--- Anzeigen --------------------------------
zugriffe:
insgesamt: 40.647.404
aktueller monat: 320.485
heute: 219
momentan online: 30
 
 
monatshöchstwert: 653.625
vorheriger monat: 400.931
gestern: 13.178
tageshöchstwert: 45.129
 
wetterwarte süd
 
konradstraße 3
info@wetterwarte-sued.com
roland roth
 
88427 bad schussenried